Alajuela, Costa Rica

5:30 AM CST on June 27, 2017 (GMT -0600)
Alajuela

Weather History for 78762 - October, 2011

Change the Weather History Date:

Saturday, October 8, 2011

  Actual Average Record
Temperature  
Mean Temperature 74 °F -  
Max Temperature 84 °F 78 °F - ()
Min Temperature 65 °F 64 °F - ()
Cooling Degree Days 10    
Growing Degree Days 24 (Base 50)    
Moisture  
Dew Point 70 °F    
Average Humidity 91    
Maximum Humidity 100    
Minimum Humidity 61    
Precipitation  
Precipitation 0.08 in 0.37 in - ()
Sea Level Pressure  
Sea Level Pressure 29.93 in    
Wind  
Wind Speed 4 mph ()    
Max Wind Speed 13 mph    
Max Gust Speed -    
Visibility 6.3 miles    
Events Fog , Rain , Thunderstorm    
T = Trace of Precipitation, MM = Missing Value Source: Averaged Metar Reports

Daily Weather History Graph

Daily Weather History Graph

Search for Another Location

Airport or City:

Trip Planner

Search our weather history database for the weather conditions in past years. The results will help you decide how hot, cold, wet, or windy it might be!

Date:

Astronomy

Oct. 08, 2011 Rise Set
Actual Time 5:25 AM CST 5:23 PM CST
Civil Twilight 5:04 AM CST 5:44 PM CST
Nautical Twilight 4:39 AM CST 6:09 PM CST
Astronomical Twilight 4:15 AM CST 6:33 PM CST
Moon 3:09 PM CST (10/8) 2:41 AM CST (10/8)
Length of Visible Light 12h 40m
Length of Day
11h 58m
Waxing Gibbous, 90% of the Moon is Illuminated
Oct 8
Waxing Gibbous
Oct 11
Full
Oct 19
Last Quarter
Oct 26
New
Nov 2
First Quarter

Hourly Weather History & Observations

Time (CST) Temp. Heat Index Dew Point Humidity Pressure Visibility Wind Dir Wind Speed Gust Speed Precip Events Conditions
12:00 AM 68.0 °F - 68.0 °F 100% 29.99 in 6.2 mi Calm Calm - N/A   Mostly Cloudy
1:00 AM 68.0 °F - 68.0 °F 100% 29.96 in 6.2 mi SE 3.5 mph - N/A   Mostly Cloudy
2:00 AM 68.0 °F - 68.0 °F 100% 29.93 in 6.2 mi East 2.3 mph - N/A   Mostly Cloudy
3:00 AM 68.0 °F - 68.0 °F 100% 29.92 in 6.2 mi East 6.9 mph - N/A   Scattered Clouds
4:00 AM 68.0 °F - 68.0 °F 100% 29.93 in - East 3.5 mph - N/A   Clear
5:00 AM 66.2 °F - 66.2 °F 100% 29.95 in - Calm Calm - N/A   Clear
6:00 AM 68.0 °F - 68.0 °F 100% 29.96 in - ENE 11.5 mph - N/A   Clear
7:00 AM 69.8 °F - 68.0 °F 94% 29.98 in - East 4.6 mph - N/A   Clear
8:00 AM 75.2 °F - 68.0 °F 78% 29.99 in - NNE 3.5 mph - N/A   Clear
9:00 AM 79 °F - 68 °F 61% 29.85 in 12 mi ENE 4.6 mph - -   Scattered Clouds
9:00 AM 78.8 °F - 68.0 °F 69% 29.99 in - ENE 4.6 mph - N/A   Clear
10:00 AM 80.6 °F 82.7 °F 66.2 °F 61% 29.97 in - SE 3.5 mph - N/A   Clear
11:00 AM 82.4 °F 86.3 °F 69.8 °F 66% 29.95 in 6.2 mi WSW 11.5 mph - N/A   Mostly Cloudy
12:00 PM 81 °F - 73 °F 72% 29.72 in 12 mi SSW 12.7 mph - -   Partly Cloudy
12:00 PM 80.6 °F 85.4 °F 73.4 °F 79% 29.93 in 6.2 mi SSW 12.7 mph - N/A   Mostly Cloudy
12:08 PM 80.6 °F 86.2 °F 75.2 °F 84% 29.92 in 6.2 mi SW 10.4 mph - N/A Thunderstorm Light Thunderstorm
1:00 PM 78.8 °F - 75.2 °F 89% 29.90 in 6.2 mi SW 10.4 mph - N/A   Mostly Cloudy
2:00 PM 77.0 °F - 71.6 °F 83% 29.90 in 6.2 mi SSW 8.1 mph - N/A   Mostly Cloudy
3:00 PM 73 °F - 73 °F 100% 29.72 in 9 mi SW 5.8 mph - -   Mostly Cloudy
3:00 PM 73.4 °F - 73.4 °F 100% 29.89 in 6.2 mi SW 5.8 mph - N/A Rain Light Rain Showers
4:00 PM 71.6 °F - 71.6 °F 100% 29.90 in 5.0 mi North 5.8 mph - N/A Rain , Thunderstorm Light Rain
5:00 PM 71.6 °F - 71.6 °F 100% 29.92 in 3.1 mi Calm Calm - N/A Rain , Thunderstorm Light Rain
6:00 PM 70 °F - 70 °F 99% 29.80 in 9 mi Calm Calm - - Fog Patches of Fog
6:00 PM 69.8 °F - 69.8 °F 100% 29.94 in 6.2 mi Calm Calm - N/A Fog Patches of Fog
7:00 PM 69.8 °F - 69.8 °F 100% 29.96 in 6.2 mi Calm Calm - N/A Rain Light Rain
8:00 PM 69.8 °F - 69.8 °F 100% 29.99 in 6.2 mi Calm Calm - N/A Fog Patches of Fog
9:00 PM 70 °F - 70 °F 99% 29.83 in 6 mi Calm Calm - -   Overcast
9:00 PM 69.8 °F - 69.8 °F 100% 30.02 in 5.0 mi Calm Calm - N/A Fog Fog
10:00 PM 69.8 °F - 69.8 °F 100% 30.01 in 5.0 mi Calm Calm - N/A Fog Mostly Cloudy
10:39 PM 69.8 °F - 69.8 °F 100% 30.00 in 1.0 mi Calm Calm - N/A   Mostly Cloudy
11:00 PM 69.8 °F - 69.8 °F 100% 29.99 in 2.5 mi Calm Calm - N/A   Mostly Cloudy